SCP
0 0 0 0 0 0 0 0 0 0 0 0 0 0 0 0 0 0 0 0 0 0 0 0 0 0 0 0 0 0 0 0 0 0 0 0 0 0 0 0 -0 -0 -0
0 0 0 0 0 0 0 0 0 0 0 0 0 0 0 0 0 0 0 0 0 0 0 0 0 0 0 0 0 0 0 0 0 0 0 0 0 0 0 0 0 0 0
0 0 0 0 0 0 0 0 0 0 0 0 0 0 0 0 0 0 0 0 0 0 0 0 0 0 0 0 0 0 0 0 0 0 0 0 0 0 0 0 0 0 0
0 0 0 0 0 0 0 0 0 0 0 0 0 0 0 0 0 0 0 0 0 0 0 0 0 0 0 0 0 0 0 0 0 0 0 0 0 0 0 0 0 0 0
0 0 0 0 0 0 0 0 0 0 0 0 0 0 0 0 0 0 0 0 0 0 0 0 0 0 0 0 0 0 0 0 0 0 0 0 0 0 0 0 0 0 0
0 0 0 0 0 0 0 0 0 0 0 0 0 0 0 0 0 0 0 0 0 0 0 0 0 0 0 0 0 0 0 0 0 0 0 0 0 0 0 0 0 0 0
0 0 0 0 0 0 0 0 0 0 0 0 0 0 0 0 0 0 0 0 0 0 0 0 0 0 0 0 0 0 0 0 0 0 0 0 0 0 0 0 0 0 0
0 0 0 0 0 0 0 0 0 0 0 0 0 0 0 0 0 0 0 0 0 0 0 0 0 0 0 0 0 0 0 0 0 0 0 0 0 0 0 0 0 0 0
0 0 0 0 0 0 0 0 0 0 0 0 0 0 0 0 0 0 0 0 0 0 0 0 0 0 0 0 0 0 0 0 0 0 0 0 0 0 0 0 0 0 0
0 0 0 0 0 0 0 0 0 0 0 0 0 0 0 0 0 0 0 0 0 0 0 0 0 0 0 0 0 0 0 0 0 0 0 0 0 0 0 0 0 0 0
0 0 0 0 0 0 0 0 0 0 0 0 0 0 0 0 0 0 0 0 0 0 0 0 0 0 0 0 0 0 0 0 0 0 0 0 0 0 0 0 0 0 0
0 0 0 0 0 0 0 0 0 0 0 0 0 0 0 0 0 0 0 0 0 0 0 0 0 0 0 0 0 0 0 0 0 0 0 0 0 0 0 0 0 0 0
0 0 0 0 0 0 0 0 0 0 0 0 0 0 0 0 0 0 0 0 0 0 0 0 0 0 0 0 0 0 0 0 0 0 0 0 0 0 0 0 0 0 0
0 0 0 0 0 0 0 0 0 0 0 0 0 0 0 0 0 0 0 0 0 0 0 0 0 0 0 0 0 0 0 0 0 0 0 0 0 0 0 0 0 0 0
0 0 0 0 0 0 0 0 0 0 0 0 0 0 0 0 0 0 0 0 0 0 0 0 0 0 0 0 0 0 0 0 0 0 0 0 0 0 0 0 0 0 0
0 0 0 0 0 0 0 0 0 0 0 0 0 0 0 0 0 0 0 0 0 0 0 0 0 0 0 0 0 0 0 0 0 0 0 0 0 0 0 0 0 0 0
0 0 0 0 0 0 0 0 0 0 0 0 0 0 0 0 0 0 0 0 0 0 0 0 0 0 0 0 0 0 0 0 0 0 0 0 0 0 0 0 0 0 0
0 0 0 0 0 0 0 0 0 0 0 0 0 0 0 0 0 0 0 0 0 0 0 0 0 0 0 0 0 0 0 0 0 0 0 0 0 0 0 0 0 0 0
0 0 0 0 0 0 0 0 0 0 0 0 0 0 0 0 0 0 0 0 0 0 0 0 0 0 0 0 0 0 0 0 0 0 0 0 0 0 0 0 0 0 0
0 0 0 0 0 0 0 0 0 0 0 0 0 0 0 0 0 0 0 0 0 0 0 0 0 0 0 0 0 0 0 0 0 0 0 0 0 0 0 0 0 0 0
0 0 0 0 0 0 0 0 0 0 0 0 0 0 0 0 0 0 0 0 0 0 0 0 0 0 0 0 0 0 0 0 0 0 0 0 0 0 0 0 0 0 0
0 0 0 0 0 0 0 0 0 0 0 0 0 0 0 0 0 0 0 0 0 0 0 0 0 0 0 0 0 0 0 0 0 0 0 0 0 0 0 0 0 0 0
0 0 0 0 0 0 0 0 0 0 0 0 0 0 0 0 0 0 0 0 0 0 0 0 0 0 0 0 0 0 0 0 0 0 0 0 0 0 0 0 0 0 0
0 0 0 0 0 0 0 0 0 0 0 0 0 0 0 0 0 0 0 0 0 0 0 0 0 0 0 0 0 0 0 0 0 0 0 0 0 0 0 0 0 0 0
0 0 0 0 0 0 0 0 0 0 0 0 0 0 0 0 0 0 0 0 0 0 0 0 0 0 0 0 0 0 0 0 0 0 0 0 0 0 0 0 0 0 0
0 0 0 0 0 0 0 0 0 0 0 0 0 0 0 0 0 0 0 0 0 0 0 0 0 0 0 0 0 0 0 0 0 0 0 0 0 0 0 0 0 0 0
Wind_Speed_500mb
70 74 75 77 76 76 75 76 73 73 74 73 69 63 56 50 44 38 32 25 21 16 13 10 5 1 5 8 11 14 19 22 26 31 37 43 49 56 62 68 74 77 78
68 72 73 74 73 76 77 76 76 77 78 76 70 63 56 50 43 36 30 26 20 15 13 11 7 4 4 5 8 12 17 22 27 32 38 44 51 57 64 70 73 78 83
74 75 74 75 76 78 77 78 81 82 80 75 68 62 55 49 43 37 29 21 17 16 15 14 12 8 5 5 8 13 16 21 28 34 40 44 53 59 64 69 76 79 83
79 81 78 77 76 74 76 81 84 87 84 78 69 60 53 47 42 34 28 21 17 16 19 21 17 14 13 10 12 16 21 25 29 35 42 47 53 58 65 74 80 81 85
81 83 79 77 76 75 79 85 88 90 83 75 68 60 54 47 41 35 27 19 14 22 27 26 24 21 20 18 19 23 28 30 34 40 46 50 53 60 66 73 76 83 88
85 86 81 80 79 77 81 87 92 90 82 75 69 63 57 50 44 36 25 20 21 32 31 31 30 28 27 27 28 31 35 37 41 46 50 50 52 55 62 69 74 81 91
87 89 87 83 83 80 81 86 94 93 85 79 71 64 58 52 46 37 32 27 28 36 34 34 35 36 34 34 35 37 42 41 45 53 49 47 54 53 61 69 70 75 83
90 90 91 90 87 84 83 90 98 93 86 80 74 66 60 56 52 43 36 30 36 39 38 38 41 41 39 38 40 45 46 45 53 52 49 54 52 53 56 62 68 75 83
86 89 91 89 88 87 86 92 95 92 89 82 74 70 66 63 58 45 42 40 41 45 41 41 43 44 41 45 48 50 53 58 56 54 54 54 52 51 53 61 64 69 85
79 83 83 82 83 82 80 86 92 91 86 83 77 71 68 66 66 46 49 43 45 51 46 43 44 44 47 49 53 57 63 58 59 62 60 59 57 56 54 52 57 63 66
58 63 68 73 76 76 78 82 84 86 88 83 70 74 74 74 68 54 55 52 45 56 50 47 45 46 49 54 57 60 60 62 65 66 63 69 68 63 60 55 54 56 62
43 48 59 65 70 73 74 80 80 81 82 73 78 84 83 84 66 64 63 58 52 57 55 51 49 51 56 58 59 59 56 51 64 65 71 72 70 67 65 61 60 59 58
30 38 42 46 56 60 64 70 73 78 83 86 92 94 87 80 79 72 69 66 64 63 58 57 57 60 60 60 61 60 62 62 64 69 71 70 68 69 68 66 66 63 64
31 34 33 42 53 62 69 75 83 91 95 93 86 90 89 89 88 82 76 78 69 70 65 64 64 67 65 63 65 61 59 63 67 67 68 70 71 73 73 68 69 67 70
31 35 37 40 44 48 54 60 65 68 74 82 88 89 91 95 90 80 82 78 65 67 66 69 73 73 68 68 69 67 66 64 64 64 68 72 74 75 75 71 65 64 64
29 31 35 37 39 42 47 50 51 56 63 72 83 88 90 91 91 86 89 74 61 65 72 77 79 78 74 71 70 69 63 62 65 66 69 73 73 73 75 72 62 60 62
22 23 26 28 32 34 36 39 43 46 49 54 63 75 81 84 87 87 83 67 59 66 76 77 76 73 68 66 63 62 67 64 63 69 71 72 72 72 71 69 62 59 59
20 19 19 20 23 26 29 33 38 44 46 46 55 61 63 70 76 80 79 61 64 68 69 70 70 66 64 64 65 67 66 69 71 71 72 72 69 67 69 66 61 57 57
17 16 17 19 22 24 27 31 35 39 43 44 51 56 58 65 72 76 76 75 67 65 64 62 60 62 63 67 70 69 71 73 72 70 69 67 63 61 64 62 60 55 54
20 20 21 23 25 27 30 33 36 39 42 45 51 57 60 59 62 63 66 61 56 54 55 58 61 65 67 66 66 66 66 66 65 63 63 61 58 56 60 60 57 54 52
27 28 28 29 31 33 35 38 39 42 44 46 47 49 52 61 63 62 60 61 61 60 60 62 60 56 55 57 58 56 55 55 53 52 53 54 52 53 53 55 53 51 50
33 33 34 35 37 39 40 42 43 44 44 45 45 44 50 60 60 61 61 61 61 60 56 51 49 50 50 50 48 47 47 47 45 45 49 49 49 47 49 49 48 48 47
32 32 33 34 36 38 39 40 41 42 43 43 44 46 50 52 49 50 50 50 48 46 46 44 44 43 42 40 41 43 45 44 44 45 47 47 47 44 44 45 45 45 43
28 30 32 33 35 35 37 37 38 39 39 39 40 41 44 46 46 46 45 43 41 39 40 43 42 37 34 35 37 40 42 43 44 44 46 47 46 44 43 43 42 42 42
22 23 24 24 25 27 28 30 31 32 34 36 37 39 41 42 42 41 42 41 41 38 39 39 35 34 35 36 37 38 41 42 41 40 42 43 44 43 42 41 41 39 38
15 16 16 17 19 20 22 24 27 30 31 33 35 37 39 41 42 41 40 39 36 37 35 34 35 36 36 36 37 38 39 39 38 38 41 42 43 40 38 38 37 36 35
Wind_Direction_500mb
215 212 215 216 220 217 213 212 209 203 200 198 196 196 197 197 194 192 189 186 182 179 182 182 194 293 351 357 3 359 359 359 357 353 350 350 351 349 349 351 352 353 353
222 220 219 220 222 217 214 212 209 204 202 200 199 199 198 196 195 193 193 186 179 180 187 196 209 260 315 343 348 347 348 345 343 343 344 344 347 345 345 347 348 350 348
217 220 224 224 223 218 216 212 208 205 203 201 201 201 199 196 193 189 188 184 184 191 200 214 226 241 260 295 321 332 334 333 332 332 334 339 339 340 340 343 345 345 343
219 219 221 224 225 222 218 213 210 206 204 202 201 200 198 196 194 190 186 189 200 214 226 224 231 239 252 279 302 317 322 323 324 324 329 334 336 337 338 339 338 339 338
224 222 224 225 224 222 219 216 211 207 205 204 200 197 196 196 196 189 188 195 225 245 233 233 236 245 257 271 289 304 310 316 317 317 327 328 331 334 336 335 334 334 333
228 225 226 227 226 226 221 218 211 208 206 204 201 199 197 197 193 189 192 218 232 242 237 238 243 251 261 270 285 296 304 310 313 319 317 321 324 329 327 329 331 331 330
229 228 226 227 227 224 223 219 212 209 207 205 203 201 201 198 192 194 212 227 236 242 243 247 252 258 264 273 284 293 298 303 308 306 310 317 319 322 325 325 325 323 320
229 227 227 225 225 226 224 217 213 210 209 208 205 205 203 199 199 214 240 223 238 246 249 252 256 261 267 275 282 287 291 296 296 299 307 316 318 320 319 316 317 317 315
231 229 228 226 226 227 221 215 213 212 211 210 210 209 206 203 210 230 257 223 233 248 252 257 262 265 271 277 279 284 289 290 296 303 303 308 310 308 311 309 314 314 316
232 230 228 227 228 228 223 217 216 216 215 213 212 212 213 213 225 238 250 227 232 248 253 259 264 270 271 276 282 284 285 294 296 298 301 309 309 306 307 307 310 310 313
234 234 231 227 225 223 221 221 221 217 217 216 218 223 220 222 222 243 253 238 228 247 253 259 266 273 277 276 278 283 289 291 293 296 304 306 309 308 308 309 311 311 310
224 226 228 226 224 222 221 220 218 220 219 224 229 226 226 221 225 248 255 244 246 248 255 261 266 270 271 276 281 284 285 283 287 293 299 302 305 307 309 312 312 311 307
215 222 221 224 227 226 223 222 220 220 222 226 227 228 228 225 237 249 251 247 254 253 256 262 265 267 273 278 280 279 282 285 288 290 294 300 304 308 309 311 309 309 306
204 207 212 217 219 219 219 221 222 223 226 231 227 231 232 237 242 249 251 251 251 251 261 264 268 271 274 275 276 280 282 286 287 289 295 298 303 309 309 308 308 311 309
208 211 219 221 222 223 225 229 229 233 234 233 232 236 234 237 245 252 249 258 254 253 259 263 268 270 271 273 278 282 283 283 287 291 292 297 303 306 305 305 307 308 307
205 208 214 217 220 223 226 231 234 237 240 239 240 243 244 245 246 250 250 258 250 250 254 259 264 267 272 276 279 281 282 283 286 288 291 296 301 302 302 301 303 304 304
193 199 206 213 219 224 228 230 234 237 239 239 241 243 244 246 248 250 251 261 250 250 251 257 262 267 271 275 279 282 284 284 284 288 292 296 298 299 297 297 301 302 302
186 198 212 221 228 231 234 237 239 241 246 244 243 247 244 241 244 247 252 263 250 250 254 257 264 270 275 277 279 281 282 286 289 292 294 296 296 296 294 295 298 299 300
194 203 211 218 222 226 231 234 239 242 245 245 247 248 248 246 245 246 252 255 254 252 253 257 261 264 268 274 279 282 286 289 292 294 296 296 295 293 290 292 294 295 296
209 215 223 230 234 236 237 238 239 240 242 242 242 243 245 243 242 246 255 258 255 252 252 255 258 265 273 278 282 285 287 291 294 296 296 295 294 291 290 291 291 291 292
229 230 233 237 241 244 246 248 248 249 250 251 251 251 250 248 250 250 250 250 253 255 257 264 270 273 278 281 284 287 292 295 298 300 300 299 298 294 290 287 288 288 289
244 245 247 250 252 255 256 255 254 254 254 253 252 249 245 244 242 244 246 249 253 258 262 264 270 276 280 282 288 293 295 299 303 303 302 304 301 297 293 291 289 288 288
247 251 255 259 261 260 260 259 257 254 252 250 248 247 247 250 250 249 250 252 255 259 264 271 275 276 279 286 290 294 299 302 302 300 302 302 302 300 296 292 290 289 288
255 258 260 261 262 262 262 262 261 259 258 255 251 248 247 248 251 252 252 254 260 268 272 272 272 276 281 286 291 295 299 300 300 300 299 298 298 298 296 293 291 291 289
255 260 262 264 266 266 266 264 262 259 258 257 255 252 251 250 250 251 253 254 259 263 263 266 273 279 284 288 292 294 296 297 299 299 296 294 294 294 295 293 292 289 287
244 250 255 260 263 264 264 264 265 263 260 256 253 250 249 247 248 253 256 259 261 261 263 269 275 279 283 288 291 293 295 296 297 297 296 295 293 293 292 291 289 289 288
Wind_Speed_850mb
70 74 75 77 76 76 75 76 73 73 74 73 69 63 56 50 44 38 32 25 21 16 13 10 5 1 5 8 11 14 19 22 26 31 37 43 49 56 62 68 74 77 78
68 72 73 74 73 76 77 76 76 77 78 76 70 63 56 50 43 36 30 26 20 15 13 11 7 4 4 5 8 12 17 22 27 32 38 44 51 57 64 70 73 78 83
74 75 74 75 76 78 77 78 81 82 80 75 68 62 55 49 43 37 29 21 17 16 15 14 12 8 5 5 8 13 16 21 28 34 40 44 53 59 64 69 76 79 83
79 81 78 77 76 74 76 81 84 87 84 78 69 60 53 47 42 34 28 21 17 16 19 21 17 14 13 10 12 16 21 25 29 35 42 47 53 58 65 74 80 81 85
81 83 79 77 76 75 79 85 88 90 83 75 68 60 54 47 41 35 27 19 14 22 27 26 24 21 20 18 19 23 28 30 34 40 46 50 53 60 66 73 76 83 88
85 86 81 80 79 77 81 87 92 90 82 75 69 63 57 50 44 36 25 20 21 32 31 31 30 28 27 27 28 31 35 37 41 46 50 50 52 55 62 69 74 81 91
87 89 87 83 83 80 81 86 94 93 85 79 71 64 58 52 46 37 32 27 28 36 34 34 35 36 34 34 35 37 42 41 45 53 49 47 54 53 61 69 70 75 83
90 90 91 90 87 84 83 90 98 93 86 80 74 66 60 56 52 43 36 30 36 39 38 38 41 41 39 38 40 45 46 45 53 52 49 54 52 53 56 62 68 75 83
86 89 91 89 88 87 86 92 95 92 89 82 74 70 66 63 58 45 42 40 41 45 41 41 43 44 41 45 48 50 53 58 56 54 54 54 52 51 53 61 64 69 85
79 83 83 82 83 82 80 86 92 91 86 83 77 71 68 66 66 46 49 43 45 51 46 43 44 44 47 49 53 57 63 58 59 62 60 59 57 56 54 52 57 63 66
58 63 68 73 76 76 78 82 84 86 88 83 70 74 74 74 68 54 55 52 45 56 50 47 45 46 49 54 57 60 60 62 65 66 63 69 68 63 60 55 54 56 62
43 48 59 65 70 73 74 80 80 81 82 73 78 84 83 84 66 64 63 58 52 57 55 51 49 51 56 58 59 59 56 51 64 65 71 72 70 67 65 61 60 59 58
30 38 42 46 56 60 64 70 73 78 83 86 92 94 87 80 79 72 69 66 64 63 58 57 57 60 60 60 61 60 62 62 64 69 71 70 68 69 68 66 66 63 64
31 34 33 42 53 62 69 75 83 91 95 93 86 90 89 89 88 82 76 78 69 70 65 64 64 67 65 63 65 61 59 63 67 67 68 70 71 73 73 68 69 67 70
31 35 37 40 44 48 54 60 65 68 74 82 88 89 91 95 90 80 82 78 65 67 66 69 73 73 68 68 69 67 66 64 64 64 68 72 74 75 75 71 65 64 64
29 31 35 37 39 42 47 50 51 56 63 72 83 88 90 91 91 86 89 74 61 65 72 77 79 78 74 71 70 69 63 62 65 66 69 73 73 73 75 72 62 60 62
22 23 26 28 32 34 36 39 43 46 49 54 63 75 81 84 87 87 83 67 59 66 76 77 76 73 68 66 63 62 67 64 63 69 71 72 72 72 71 69 62 59 59
20 19 19 20 23 26 29 33 38 44 46 46 55 61 63 70 76 80 79 61 64 68 69 70 70 66 64 64 65 67 66 69 71 71 72 72 69 67 69 66 61 57 57
17 16 17 19 22 24 27 31 35 39 43 44 51 56 58 65 72 76 76 75 67 65 64 62 60 62 63 67 70 69 71 73 72 70 69 67 63 61 64 62 60 55 54
20 20 21 23 25 27 30 33 36 39 42 45 51 57 60 59 62 63 66 61 56 54 55 58 61 65 67 66 66 66 66 66 65 63 63 61 58 56 60 60 57 54 52
27 28 28 29 31 33 35 38 39 42 44 46 47 49 52 61 63 62 60 61 61 60 60 62 60 56 55 57 58 56 55 55 53 52 53 54 52 53 53 55 53 51 50
33 33 34 35 37 39 40 42 43 44 44 45 45 44 50 60 60 61 61 61 61 60 56 51 49 50 50 50 48 47 47 47 45 45 49 49 49 47 49 49 48 48 47
32 32 33 34 36 38 39 40 41 42 43 43 44 46 50 52 49 50 50 50 48 46 46 44 44 43 42 40 41 43 45 44 44 45 47 47 47 44 44 45 45 45 43
28 30 32 33 35 35 37 37 38 39 39 39 40 41 44 46 46 46 45 43 41 39 40 43 42 37 34 35 37 40 42 43 44 44 46 47 46 44 43 43 42 42 42
22 23 24 24 25 27 28 30 31 32 34 36 37 39 41 42 42 41 42 41 41 38 39 39 35 34 35 36 37 38 41 42 41 40 42 43 44 43 42 41 41 39 38
15 16 16 17 19 20 22 24 27 30 31 33 35 37 39 41 42 41 40 39 36 37 35 34 35 36 36 36 37 38 39 39 38 38 41 42 43 40 38 38 37 36 35
Wind_Direction_850mb
215 212 215 216 220 217 213 212 209 203 200 198 196 196 197 197 194 192 189 186 182 179 182 182 194 293 351 357 3 359 359 359 357 353 350 350 351 349 349 351 352 353 353
222 220 219 220 222 217 214 212 209 204 202 200 199 199 198 196 195 193 193 186 179 180 187 196 209 260 315 343 348 347 348 345 343 343 344 344 347 345 345 347 348 350 348
217 220 224 224 223 218 216 212 208 205 203 201 201 201 199 196 193 189 188 184 184 191 200 214 226 241 260 295 321 332 334 333 332 332 334 339 339 340 340 343 345 345 343
219 219 221 224 225 222 218 213 210 206 204 202 201 200 198 196 194 190 186 189 200 214 226 224 231 239 252 279 302 317 322 323 324 324 329 334 336 337 338 339 338 339 338
224 222 224 225 224 222 219 216 211 207 205 204 200 197 196 196 196 189 188 195 225 245 233 233 236 245 257 271 289 304 310 316 317 317 327 328 331 334 336 335 334 334 333
228 225 226 227 226 226 221 218 211 208 206 204 201 199 197 197 193 189 192 218 232 242 237 238 243 251 261 270 285 296 304 310 313 319 317 321 324 329 327 329 331 331 330
229 228 226 227 227 224 223 219 212 209 207 205 203 201 201 198 192 194 212 227 236 242 243 247 252 258 264 273 284 293 298 303 308 306 310 317 319 322 325 325 325 323 320
229 227 227 225 225 226 224 217 213 210 209 208 205 205 203 199 199 214 240 223 238 246 249 252 256 261 267 275 282 287 291 296 296 299 307 316 318 320 319 316 317 317 315
231 229 228 226 226 227 221 215 213 212 211 210 210 209 206 203 210 230 257 223 233 248 252 257 262 265 271 277 279 284 289 290 296 303 303 308 310 308 311 309 314 314 316
232 230 228 227 228 228 223 217 216 216 215 213 212 212 213 213 225 238 250 227 232 248 253 259 264 270 271 276 282 284 285 294 296 298 301 309 309 306 307 307 310 310 313
234 234 231 227 225 223 221 221 221 217 217 216 218 223 220 222 222 243 253 238 228 247 253 259 266 273 277 276 278 283 289 291 293 296 304 306 309 308 308 309 311 311 310
224 226 228 226 224 222 221 220 218 220 219 224 229 226 226 221 225 248 255 244 246 248 255 261 266 270 271 276 281 284 285 283 287 293 299 302 305 307 309 312 312 311 307
215 222 221 224 227 226 223 222 220 220 222 226 227 228 228 225 237 249 251 247 254 253 256 262 265 267 273 278 280 279 282 285 288 290 294 300 304 308 309 311 309 309 306
204 207 212 217 219 219 219 221 222 223 226 231 227 231 232 237 242 249 251 251 251 251 261 264 268 271 274 275 276 280 282 286 287 289 295 298 303 309 309 308 308 311 309
208 211 219 221 222 223 225 229 229 233 234 233 232 236 234 237 245 252 249 258 254 253 259 263 268 270 271 273 278 282 283 283 287 291 292 297 303 306 305 305 307 308 307
205 208 214 217 220 223 226 231 234 237 240 239 240 243 244 245 246 250 250 258 250 250 254 259 264 267 272 276 279 281 282 283 286 288 291 296 301 302 302 301 303 304 304
193 199 206 213 219 224 228 230 234 237 239 239 241 243 244 246 248 250 251 261 250 250 251 257 262 267 271 275 279 282 284 284 284 288 292 296 298 299 297 297 301 302 302
186 198 212 221 228 231 234 237 239 241 246 244 243 247 244 241 244 247 252 263 250 250 254 257 264 270 275 277 279 281 282 286 289 292 294 296 296 296 294 295 298 299 300
194 203 211 218 222 226 231 234 239 242 245 245 247 248 248 246 245 246 252 255 254 252 253 257 261 264 268 274 279 282 286 289 292 294 296 296 295 293 290 292 294 295 296
209 215 223 230 234 236 237 238 239 240 242 242 242 243 245 243 242 246 255 258 255 252 252 255 258 265 273 278 282 285 287 291 294 296 296 295 294 291 290 291 291 291 292
229 230 233 237 241 244 246 248 248 249 250 251 251 251 250 248 250 250 250 250 253 255 257 264 270 273 278 281 284 287 292 295 298 300 300 299 298 294 290 287 288 288 289
244 245 247 250 252 255 256 255 254 254 254 253 252 249 245 244 242 244 246 249 253 258 262 264 270 276 280 282 288 293 295 299 303 303 302 304 301 297 293 291 289 288 288
247 251 255 259 261 260 260 259 257 254 252 250 248 247 247 250 250 249 250 252 255 259 264 271 275 276 279 286 290 294 299 302 302 300 302 302 302 300 296 292 290 289 288
255 258 260 261 262 262 262 262 261 259 258 255 251 248 247 248 251 252 252 254 260 268 272 272 272 276 281 286 291 295 299 300 300 300 299 298 298 298 296 293 291 291 289
255 260 262 264 266 266 266 264 262 259 258 257 255 252 251 250 250 251 253 254 259 263 263 266 273 279 284 288 292 294 296 297 299 299 296 294 294 294 295 293 292 289 287
244 250 255 260 263 264 264 264 265 263 260 256 253 250 249 247 248 253 256 259 261 261 263 269 275 279 283 288 291 293 295 296 297 297 296 295 293 293 292 291 289 289 288